TimeMST,TemperatureF,Dew PointF,Humidity,Sea Level PressureIn,VisibilityMPH,Wind Direction,Wind SpeedMPH,Gust SpeedMPH,PrecipitationIn,Events,Conditions,WindDirDegrees,DateUTC
12:53 AM,25.0,19.9,81,30.26,10.0,ESE,6.9,-,N/A,,Clear,110,2012-12-29 07:53:00
1:53 AM,24.1,19.0,81,30.25,10.0,ESE,5.8,-,N/A,,Clear,120,2012-12-29 08:53:00
2:53 AM,24.1,16.0,71,30.26,10.0,ESE,4.6,-,N/A,,Clear,120,2012-12-29 09:53:00
3:53 AM,23.0,17.1,78,30.26,10.0,Calm,Calm,-,N/A,,Clear,0,2012-12-29 10:53:00
4:53 AM,21.9,17.1,82,30.25,10.0,ESE,3.5,-,N/A,,Clear,120,2012-12-29 11:53:00
5:53 AM,17.1,14.0,88,30.27,10.0,Calm,Calm,-,N/A,,Partly Cloudy,0,2012-12-29 12:53:00
6:01 AM,17.6,15.8,93,30.14,0.5,Calm,Calm,-,N/A,Fog,Light Freezing Fog,0,2012-12-29 13:01:00
6:53 AM,17.1,14.0,88,30.27,10.0,Calm,Calm,-,N/A,,Scattered Clouds,0,2012-12-29 13:53:00
7:53 AM,16.0,12.9,88,30.28,10.0,Calm,Calm,-,N/A,,Clear,0,2012-12-29 14:53:00
8:53 AM,16.0,14.0,92,30.27,10.0,Calm,Calm,-,N/A,,Clear,0,2012-12-29 15:53:00
9:53 AM,18.0,16.0,92,30.28,10.0,Calm,Calm,-,N/A,,Clear,0,2012-12-29 16:53:00
10:53 AM,14.0,12.9,95,30.29,10.0,Calm,Calm,-,N/A,,Clear,0,2012-12-29 17:53:00
11:53 AM,19.0,16.0,88,30.26,10.0,Calm,Calm,-,N/A,,Clear,0,2012-12-29 18:53:00
12:53 PM,19.9,16.0,85,30.22,10.0,West,4.6,-,N/A,,Clear,270,2012-12-29 19:53:00
1:53 PM,23.0,16.0,74,30.19,10.0,Calm,Calm,-,N/A,,Clear,0,2012-12-29 20:53:00
2:53 PM,23.0,16.0,74,30.18,10.0,WSW,3.5,-,N/A,,Overcast,240,2012-12-29 21:53:00
3:53 PM,23.0,15.8,74,30.05,10.0,Calm,Calm,-,N/A,,Overcast,0,2012-12-29 22:53:00
4:53 PM,23.0,17.1,78,30.17,10.0,Calm,Calm,-,N/A,,Overcast,0,2012-12-29 23:53:00
5:53 PM,21.9,17.1,82,30.17,10.0,WNW,3.5,-,N/A,,Overcast,300,2012-12-30 00:53:00
6:53 PM,21.9,18.0,85,30.17,10.0,WNW,3.5,-,N/A,,Overcast,290,2012-12-30 01:53:00
7:34 PM,23.0,19.4,86,30.05,3.0,Calm,Calm,-,0.00,Snow,Light Snow,0,2012-12-30 02:34:00
7:38 PM,23.0,19.4,86,30.05,2.5,Calm,Calm,-,0.00,Snow,Light Snow,0,2012-12-30 02:38:00
7:53 PM,23.0,19.9,88,30.18,2.0,Calm,Calm,-,0.00,Snow,Light Snow,0,2012-12-30 02:53:00
8:01 PM,23.0,19.4,86,30.05,3.0,Calm,Calm,-,0.00,Snow,Light Snow,0,2012-12-30 03:01:00
8:34 PM,23.0,19.4,86,30.05,2.5,Calm,Calm,-,0.01,Snow,Light Snow,0,2012-12-30 03:34:00
8:53 PM,21.9,21.0,96,30.19,3.0,Calm,Calm,-,0.01,Snow,Light Snow,0,2012-12-30 03:53:00
9:53 PM,21.0,19.0,92,30.20,5.0,Calm,Calm,-,0.00,Snow,Light Snow,0,2012-12-30 04:53:00
10:13 PM,21.2,19.4,93,30.06,3.0,Calm,Calm,-,0.00,Snow,Light Snow,0,2012-12-30 05:13:00
10:53 PM,19.4,17.6,93,30.07,5.0,Calm,Calm,-,N/A,,Scattered Clouds,0,2012-12-30 05:53:00
11:53 PM,19.9,17.1,89,30.21,5.0,Calm,Calm,-,0.00,Snow,Light Snow,0,2012-12-30 06:53:00